Time,TemperatureF,DewpointF,PressureIn,WindDirection,WindDirectionDegrees,WindSpeedMPH,WindSpeedGustMPH,Humidity,HourlyPrecipIn,Conditions,Clouds,dailyrainin,SoftwareType,DateUTC
2013-02-13 00:01:00,34.0,25.0,29.93,WSW,253,0.0,0.0,68,0.00,,,0.05,,2013-02-13 05:01:00,
2013-02-13 00:11:00,32.0,24.0,29.93,WSW,253,0.0,0.0,73,0.00,,,0.00,,2013-02-13 05:11:00,
2013-02-13 00:22:00,32.0,24.0,29.93,WSW,253,0.0,0.0,73,0.00,,,0.00,,2013-02-13 05:22:00,
2013-02-13 00:32:00,32.0,25.0,29.93,WSW,253,0.0,0.0,75,0.00,,,0.00,,2013-02-13 05:32:00,
2013-02-13 00:42:00,32.0,25.0,29.93,WSW,253,0.0,0.0,75,0.00,,,0.00,,2013-02-13 05:42:00,
2013-02-13 00:52:00,32.0,24.0,29.93,WSW,253,0.0,0.0,73,0.00,,,0.00,,2013-02-13 05:52:00,
2013-02-13 01:02:00,32.0,25.0,29.93,WSW,253,0.0,0.0,74,0.00,,,0.00,,2013-02-13 06:02:00,
2013-02-13 01:11:00,32.0,25.0,29.93,WSW,253,0.0,0.0,74,0.00,,,0.00,,2013-02-13 06:11:00,
2013-02-13 01:21:00,32.0,25.0,29.93,WSW,253,0.0,0.0,74,0.00,,,0.00,,2013-02-13 06:21:00,
2013-02-13 01:32:00,32.0,25.0,29.93,WSW,253,0.0,0.0,74,0.00,,,0.00,,2013-02-13 06:32:00,
2013-02-13 01:42:00,32.0,24.0,29.89,WSW,253,0.0,0.0,71,0.00,,,0.00,,2013-02-13 06:42:00,
2013-02-13 01:52:00,32.0,24.0,29.89,WSW,253,0.0,0.0,71,0.00,,,0.00,,2013-02-13 06:52:00,
2013-02-13 02:02:00,32.0,24.0,29.88,WSW,253,0.0,0.0,71,0.00,,,0.00,,2013-02-13 07:02:00,
2013-02-13 02:11:00,32.0,24.0,29.88,WSW,253,0.0,0.0,71,0.00,,,0.00,,2013-02-13 07:11:00,
2013-02-13 02:22:00,32.0,24.0,29.88,WSW,253,0.0,0.0,71,0.00,,,0.00,,2013-02-13 07:22:00,
2013-02-13 02:32:00,31.0,23.0,29.89,WSW,253,0.0,0.0,73,0.00,,,0.00,,2013-02-13 07:32:00,
2013-02-13 02:42:00,31.0,23.0,29.89,WSW,253,0.0,0.0,73,0.00,,,0.00,,2013-02-13 07:42:00,
2013-02-13 02:52:00,31.0,23.0,29.89,WSW,253,0.0,0.0,73,0.00,,,0.00,,2013-02-13 07:52:00,
2013-02-13 03:01:00,31.0,24.0,29.88,WSW,253,0.0,0.0,75,0.00,,,0.00,,2013-02-13 08:01:00,
2013-02-13 03:11:00,31.0,24.0,29.87,WSW,253,0.0,0.0,76,0.00,,,0.00,,2013-02-13 08:11:00,
2013-02-13 03:21:00,31.0,24.0,29.87,WSW,253,0.0,0.0,76,0.00,,,0.00,,2013-02-13 08:21:00,
2013-02-13 03:32:00,30.0,24.0,29.87,WSW,253,0.0,0.0,79,0.00,,,0.00,,2013-02-13 08:32:00,
2013-02-13 03:43:00,30.0,24.0,29.87,WSW,253,0.0,0.0,79,0.00,,,0.00,,2013-02-13 08:43:00,
2013-02-13 03:52:00,30.0,24.0,29.87,WSW,253,0.0,0.0,79,0.00,,,0.00,,2013-02-13 08:52:00,
2013-02-13 04:02:00,29.0,24.0,29.86,WSW,253,0.0,0.0,81,0.00,,,0.00,,2013-02-13 09:02:00,
2013-02-13 04:11:00,29.0,24.0,29.86,WSW,253,0.0,0.0,81,0.00,,,0.00,,2013-02-13 09:11:00,
2013-02-13 04:21:00,29.0,24.0,29.86,WSW,253,0.0,0.0,81,0.00,,,0.00,,2013-02-13 09:21:00,
2013-02-13 04:32:00,28.0,24.0,29.86,WSW,253,0.0,0.0,86,0.00,,,0.00,,2013-02-13 09:32:00,
2013-02-13 04:42:00,28.0,25.0,29.86,WSW,253,0.0,0.0,90,0.00,,,0.00,,2013-02-13 09:42:00,
2013-02-13 04:52:00,28.0,25.0,29.86,WSW,253,0.0,0.0,90,0.00,,,0.00,,2013-02-13 09:52:00,
2013-02-13 05:01:00,28.0,25.0,29.86,WSW,253,0.0,0.0,90,0.00,,,0.00,,2013-02-13 10:01:00,
2013-02-13 05:11:00,28.0,25.0,29.86,WSW,253,0.0,0.0,90,0.00,,,0.00,,2013-02-13 10:11:00,
2013-02-13 05:21:00,28.0,25.0,29.86,WSW,253,0.0,0.0,90,0.00,,,0.00,,2013-02-13 10:21:00,
2013-02-13 05:32:00,28.0,25.0,29.86,WSW,253,0.0,0.0,90,0.00,,,0.00,,2013-02-13 10:32:00,
2013-02-13 05:42:00,29.0,26.0,29.85,WSW,253,0.0,0.0,89,0.00,,,0.00,,2013-02-13 10:42:00,
2013-02-13 05:51:00,29.0,26.0,29.85,WSW,253,0.0,0.0,89,0.00,,,0.00,,2013-02-13 10:51:00,
2013-02-13 06:01:00,30.0,27.0,29.84,WSW,253,0.0,0.0,87,0.00,,,0.00,,2013-02-13 11:01:00,
2013-02-13 06:11:00,30.0,27.0,29.84,WSW,253,0.0,0.0,87,0.00,,,0.00,,2013-02-13 11:11:00,
2013-02-13 06:22:00,30.0,27.0,29.84,WSW,253,0.0,0.0,87,0.00,,,0.00,,2013-02-13 11:22:00,
2013-02-13 06:32:00,30.0,27.0,29.83,WSW,253,0.0,0.0,90,0.00,,,0.00,,2013-02-13 11:32:00,
2013-02-13 06:42:00,30.0,27.0,29.83,WSW,253,0.0,0.0,90,0.00,,,0.00,,2013-02-13 11:42:00,
2013-02-13 06:52:00,30.0,27.0,29.83,WSW,253,0.0,0.0,90,0.00,,,0.00,,2013-02-13 11:52:00,
2013-02-13 07:02:00,29.0,26.0,29.81,WSW,253,0.0,0.0,90,0.00,,,0.00,,2013-02-13 12:02:00,
2013-02-13 07:11:00,28.0,26.0,29.80,WSW,253,0.0,0.0,91,0.00,,,0.00,,2013-02-13 12:11:00,
2013-02-13 07:22:00,28.0,26.0,29.80,WSW,253,0.0,0.0,91,0.00,,,0.00,,2013-02-13 12:22:00,
2013-02-13 07:31:00,28.0,26.0,29.80,WSW,253,0.0,0.0,93,0.00,,,0.00,,2013-02-13 12:31:00,
2013-02-13 07:32:00,28.0,26.0,29.80,WSW,253,0.0,0.0,91,0.00,,,0.00,,2013-02-13 12:32:00,
2013-02-13 07:42:00,28.0,26.0,29.80,WSW,253,0.0,0.0,93,0.00,,,0.00,,2013-02-13 12:42:00,
2013-02-13 07:52:00,28.0,26.0,29.80,WSW,253,0.0,0.0,93,0.00,,,0.00,,2013-02-13 12:52:00,
2013-02-13 08:02:00,28.0,26.0,29.80,WSW,253,0.0,0.0,93,0.00,,,0.00,,2013-02-13 13:02:00,
2013-02-13 08:11:00,28.0,26.0,29.80,WSW,253,0.0,0.0,93,0.00,,,0.00,,2013-02-13 13:11:00,
2013-02-13 08:21:00,28.0,26.0,29.80,WSW,253,0.0,0.0,93,0.00,,,0.00,,2013-02-13 13:21:00,
2013-02-13 09:32:00,32.0,29.0,29.74,WSW,253,0.0,0.0,88,0.00,,,0.00,,2013-02-13 14:32:00,
2013-02-13 09:42:00,33.0,29.0,29.77,NW,314,1.0,0.0,84,0.00,,,0.00,,2013-02-13 14:42:00,
2013-02-13 09:52:00,33.0,29.0,29.77,NW,314,1.0,0.0,84,0.00,,,0.00,,2013-02-13 14:52:00,
2013-02-13 10:02:00,33.0,29.0,29.77,NW,314,1.0,0.0,84,0.00,,,0.00,,2013-02-13 15:02:00,
2013-02-13 10:11:00,33.0,29.0,29.77,NW,314,1.0,0.0,84,0.00,,,0.00,,2013-02-13 15:11:00,
2013-02-13 10:21:00,33.0,29.0,29.77,NW,314,1.0,0.0,84,0.00,,,0.00,,2013-02-13 15:21:00,
2013-02-13 10:32:00,37.0,29.0,29.73,NNW,339,0.0,0.0,74,0.00,,,0.00,,2013-02-13 15:32:00,
2013-02-13 10:52:00,37.0,29.0,29.73,NNW,339,0.0,0.0,74,0.00,,,0.00,,2013-02-13 15:52:00,
2013-02-13 11:02:00,37.0,29.0,29.73,NNW,339,0.0,0.0,74,0.00,,,0.00,,2013-02-13 16:02:00,
2013-02-13 11:11:00,37.0,29.0,29.73,NNW,339,0.0,0.0,74,0.00,,,0.00,,2013-02-13 16:11:00,
2013-02-13 11:21:00,37.0,29.0,29.73,NNW,339,0.0,0.0,74,0.00,,,0.00,,2013-02-13 16:21:00,
2013-02-13 13:32:00,41.0,31.0,29.69,North,354,0.0,0.0,66,0.00,,,0.00,,2013-02-13 18:32:00,
2013-02-13 13:42:00,41.0,31.0,29.69,North,354,0.0,0.0,66,0.00,,,0.00,,2013-02-13 18:42:00,
2013-02-13 13:52:00,41.0,31.0,29.69,North,354,0.0,0.0,66,0.00,,,0.00,,2013-02-13 18:52:00,
2013-02-13 14:01:00,41.0,31.0,29.69,North,354,0.0,0.0,66,0.00,,,0.00,,2013-02-13 19:01:00,
2013-02-13 15:02:00,41.0,31.0,29.67,North,354,0.0,0.0,68,0.00,,,0.00,,2013-02-13 20:02:00,
2013-02-13 15:11:00,41.0,31.0,29.67,North,354,0.0,0.0,68,0.00,,,0.00,,2013-02-13 20:11:00,
2013-02-13 15:22:00,41.0,31.0,29.67,North,354,0.0,0.0,68,0.00,,,0.00,,2013-02-13 20:22:00,
2013-02-13 15:32:00,41.0,31.0,29.67,North,354,0.0,0.0,68,0.00,,,0.00,,2013-02-13 20:32:00,
2013-02-13 15:42:00,39.0,35.0,29.67,North,11,9.0,9.0,85,0.00,,,0.00,,2013-02-13 20:42:00,
2013-02-13 15:52:00,39.0,35.0,29.67,North,11,9.0,9.0,85,0.00,,,0.00,,2013-02-13 20:52:00,
2013-02-13 16:02:00,39.0,35.0,29.67,North,11,9.0,9.0,85,0.00,,,0.00,,2013-02-13 21:02:00,
2013-02-13 16:11:00,39.0,35.0,29.67,North,11,9.0,9.0,85,0.00,,,0.00,,2013-02-13 21:11:00,
2013-02-13 16:21:00,39.0,35.0,29.67,North,11,9.0,9.0,85,0.00,,,0.00,,2013-02-13 21:21:00,
2013-02-13 16:31:00,39.0,35.0,29.67,North,11,9.0,9.0,85,0.00,,,0.00,,2013-02-13 21:31:00,
2013-02-13 17:02:00,35.0,35.0,29.69,North,7,0.0,0.0,100,0.00,,,0.00,,2013-02-13 22:02:00,
2013-02-13 17:11:00,34.0,34.0,29.69,North,7,0.0,0.0,100,0.00,,,0.00,,2013-02-13 22:11:00,
2013-02-13 17:21:00,34.0,34.0,29.69,North,7,0.0,0.0,100,0.00,,,0.00,,2013-02-13 22:21:00,
2013-02-13 17:32:00,34.0,34.0,29.70,North,7,0.0,0.0,100,0.02,,,0.00,,2013-02-13 22:32:00,
2013-02-13 17:42:00,34.0,34.0,29.70,North,7,0.0,0.0,100,0.02,,,0.00,,2013-02-13 22:42:00,
2013-02-13 17:51:00,34.0,34.0,29.70,North,7,0.0,0.0,100,0.02,,,0.00,,2013-02-13 22:51:00,
2013-02-13 18:01:00,34.0,34.0,29.70,North,7,0.0,0.0,100,0.02,,,0.00,,2013-02-13 23:01:00,
2013-02-13 18:11:00,34.0,34.0,29.70,North,7,0.0,0.0,100,0.02,,,0.00,,2013-02-13 23:11:00,
2013-02-13 18:21:00,34.0,34.0,29.70,North,7,0.0,0.0,100,0.02,,,0.00,,2013-02-13 23:21:00,
2013-02-13 18:32:00,33.0,33.0,29.71,North,7,0.0,0.0,100,0.07,,,0.00,,2013-02-13 23:32:00,
2013-02-13 18:42:00,33.0,33.0,29.71,North,7,0.0,0.0,100,0.07,,,0.00,,2013-02-13 23:42:00,
2013-02-13 18:52:00,33.0,33.0,29.72,North,7,0.0,0.0,100,0.07,,,0.00,,2013-02-13 23:52:00,
2013-02-13 19:02:00,33.0,33.0,29.73,North,7,0.0,0.0,100,0.07,,,0.00,,2013-02-14 00:02:00,
2013-02-13 19:11:00,33.0,33.0,29.73,North,7,0.0,0.0,100,0.07,,,0.00,,2013-02-14 00:11:00,
2013-02-13 19:21:00,33.0,33.0,29.74,North,7,0.0,0.0,100,0.05,,,0.00,,2013-02-14 00:21:00,
2013-02-13 19:32:00,33.0,33.0,29.75,North,7,0.0,0.0,100,0.05,,,0.00,,2013-02-14 00:32:00,
2013-02-13 19:42:00,33.0,33.0,29.75,North,7,0.0,0.0,100,0.05,,,0.00,,2013-02-14 00:42:00,
2013-02-13 19:52:00,33.0,33.0,29.75,North,7,0.0,0.0,100,0.05,,,0.00,,2013-02-14 00:52:00,
2013-02-13 20:01:00,33.0,33.0,29.76,North,7,0.0,0.0,100,0.05,,,0.00,,2013-02-14 01:01:00,
2013-02-13 20:11:00,33.0,33.0,29.77,North,7,0.0,0.0,100,0.03,,,0.00,,2013-02-14 01:11:00,
2013-02-13 20:21:00,33.0,33.0,29.77,North,7,0.0,0.0,100,0.03,,,0.00,,2013-02-14 01:21:00,
2013-02-13 20:32:00,33.0,33.0,29.78,North,7,0.0,0.0,100,0.03,,,0.00,,2013-02-14 01:32:00,
2013-02-13 20:41:00,33.0,33.0,29.78,North,7,0.0,0.0,100,0.03,,,0.00,,2013-02-14 01:41:00,
2013-02-13 20:52:00,33.0,33.0,29.78,North,7,0.0,0.0,100,0.03,,,0.00,,2013-02-14 01:52:00,
2013-02-13 21:01:00,33.0,33.0,29.78,North,7,0.0,0.0,100,0.03,,,0.00,,2013-02-14 02:01:00,
2013-02-13 21:11:00,33.0,33.0,29.79,North,7,0.0,0.0,100,0.00,,,0.00,,2013-02-14 02:11:00,
2013-02-13 21:21:00,33.0,33.0,29.79,North,7,0.0,0.0,100,0.00,,,0.00,,2013-02-14 02:21:00,
2013-02-13 21:32:00,33.0,33.0,29.80,North,7,0.0,0.0,100,0.00,,,0.00,,2013-02-14 02:32:00,
2013-02-13 21:41:00,33.0,33.0,29.80,North,7,0.0,0.0,100,0.00,,,0.00,,2013-02-14 02:41:00,
2013-02-13 21:52:00,33.0,33.0,29.80,North,7,0.0,0.0,100,0.00,,,0.00,,2013-02-14 02:52:00,
2013-02-13 22:02:00,33.0,33.0,29.81,North,7,0.0,0.0,100,0.00,,,0.00,,2013-02-14 03:02:00,
2013-02-13 22:11:00,33.0,33.0,29.82,North,7,0.0,0.0,100,0.01,,,0.00,,2013-02-14 03:11:00,
2013-02-13 22:22:00,33.0,33.0,29.82,North,7,0.0,0.0,100,0.01,,,0.00,,2013-02-14 03:22:00,
2013-02-13 22:31:00,33.0,33.0,29.82,North,7,0.0,0.0,100,0.01,,,0.00,,2013-02-14 03:31:00,
2013-02-13 22:42:00,33.0,33.0,29.83,North,7,0.0,0.0,100,0.01,,,0.00,,2013-02-14 03:42:00,
2013-02-13 22:52:00,33.0,33.0,29.83,North,7,0.0,0.0,100,0.01,,,0.00,,2013-02-14 03:52:00,
2013-02-13 23:01:00,33.0,33.0,29.83,North,7,0.0,0.0,100,0.01,,,0.00,,2013-02-14 04:01:00,
2013-02-13 23:12:00,32.0,32.0,29.83,North,7,0.0,0.0,100,0.00,,,0.00,,2013-02-14 04:12:00,
2013-02-13 23:21:00,32.0,32.0,29.83,North,7,0.0,0.0,100,0.00,,,0.00,,2013-02-14 04:21:00,
2013-02-13 23:31:00,32.0,32.0,29.84,North,7,0.0,0.0,100,0.00,,,0.00,,2013-02-14 04:31:00,
2013-02-13 23:41:00,32.0,32.0,29.84,North,7,0.0,0.0,100,0.00,,,0.00,,2013-02-14 04:41:00,
2013-02-13 23:52:00,32.0,32.0,29.84,North,7,0.0,0.0,100,0.00,,,0.00,,2013-02-14 04:52:00,